1518703200.04,53536,11.63,73072.8,-5.19,-40.85,-40.59,0,*5A
1518703201.3,53537,11.63,73074.3,-5.19,-40.85,-40.47,0,*54
1518703202.53,53538,11.63,73074.0,-5.19,-40.91,-40.65,0,*5E
1518703203.78,53539,11.69,73078.8,-5.19,-40.79,-40.47,0,*59
1518703205.03,53540,11.69,73074.5,-5.19,-40.79,-40.47,0,*57
1518703206.32,53541,11.69,73074.3,-5.19,-40.59,-40.29,0,*5C
1518703207.55,53542,11.63,73070.8,-5.17,-40.97,-40.73,0,*5C
1518703208.78,53543,11.63,73072.3,-5.17,-41.17,-40.79,0,*5E
1518703210.02,53544,11.69,73076.5,-5.17,-41.03,-40.85,0,*5F
1518703211.25,53545,11.63,73074.8,-5.17,-40.85,-40.73,0,*58
1518703212.48,53546,11.63,73072.3,-5.17,-40.97,-40.73,0,*58
1518703213.68,53547,11.63,73070.5,-5.17,-40.73,-40.53,0,*51
1518703214.92,53548,11.69,73076.0,-5.17,-40.59,-40.15,0,*54
1518703216.14,53549,11.69,73076.0,-5.17,-40.53,-40.21,0,*58
1518703217.4,53550,11.69,73072.8,-5.17,-40.97,-40.59,0,*57
1518703218.63,53551,11.63,73074.5,-5.17,-40.79,-40.53,0,*5C
1518703219.86,53552,11.69,73074.5,-5.17,-40.97,-40.73,0,*5D
1518703221.09,53553,11.63,73072.3,-5.17,-40.73,-40.41,0,*57
1518703222.35,53554,11.63,73074.5,-5.17,-40.79,-40.41,0,*5A
1518703223.56,53555,11.69,73078.0,-5.17,-40.91,-40.65,0,*5B
1518703224.8,53556,11.63,73074.5,-5.17,-41.03,-40.59,0,*5D
1518703226.01,53557,11.69,73074.3,-5.17,-41.03,-40.73,0,*54
1518703227.28,53558,11.63,73072.0,-5.17,-41.23,-40.85,0,*50
1518703228.51,53559,11.69,73078.5,-5.17,-40.97,-40.73,0,*56
1518703229.76,53560,11.69,73076.0,-5.17,-40.59,-40.21,0,*59
1518703231.0,53561,11.63,73076.3,-5.17,-41.03,-40.59,0,*59
1518703232.23,53562,11.69,73076.3,-5.17,-41.17,-40.79,0,*5D
1518703233.5,53563,11.69,73076.5,-5.19,-41.99,-41.67,0,*5A
1518703234.79,53564,11.69,73078.3,-5.19,-41.23,-40.85,0,*51
1518703236.03,53565,11.69,73074.8,-5.21,-41.23,-40.91,0,*5E
1518703237.27,53566,11.63,73076.3,-5.21,-41.03,-40.79,0,*59
1518703238.53,53567,11.63,73074.3,-5.19,-40.85,-40.47,0,*51
1518703239.77,53568,11.69,73074.5,-5.19,-41.41,-41.03,0,*56
1518703241.02,53569,11.63,73072.0,-5.19,-41.11,-40.79,0,*5E
1518703242.3,53570,11.69,73076.5,-5.19,-41.23,-40.79,0,*57
1518703243.54,53571,11.63,73074.5,-5.19,-40.91,-40.65,0,*53
1518703244.77,53572,11.63,73072.5,-5.21,-40.65,-40.41,0,*56
1518703246.05,53573,11.69,73078.3,-5.19,-40.59,-40.29,0,*5D
1518703247.31,53574,11.63,73072.8,-5.19,-40.85,-40.47,0,*53
1518703248.57,53575,11.69,73076.3,-5.19,-41.03,-40.79,0,*50
1518703249.8,53576,11.69,73078.5,-5.19,-41.49,-41.11,0,*52
1518703251.04,53577,11.69,73078.3,-5.19,-41.29,-40.91,0,*5C
1518703252.27,53578,11.63,73072.5,-5.19,-41.49,-41.11,0,*5C
1518703253.5,53579,11.63,73074.0,-5.21,-40.65,-40.41,0,*5D
1518703254.77,53580,11.69,73076.3,-5.19,-40.91,-40.59,0,*52
1518703256.04,53581,11.69,73078.5,-5.19,-41.23,-41.03,0,*55
1518703257.3,53582,11.63,73076.5,-5.21,-41.23,-40.79,0,*51
1518703258.56,53583,11.69,73076.8,-5.21,-40.85,-40.59,0,*5F
1518703259.83,53584,11.63,73076.3,-5.21,-40.85,-40.41,0,*51
1518703261.08,53585,11.69,73076.0,-5.19,-40.47,-40.21,0,*53
1518703262.36,53586,11.69,73078.3,-5.19,-40.59,-40.21,0,*5F
1518703263.65,53587,11.63,73076.3,-5.19,-40.41,-40.09,0,*5D
1518703264.91,53588,11.69,73076.3,-5.19,-40.41,-40.03,0,*58
1518703266.12,53589,11.63,73076.0,-5.17,-40.03,-39.65,0,*5F
1518703267.38,53590,11.69,73076.0,-5.13,-40.09,-39.71,0,*5C
1518703268.64,53591,11.69,73078.0,-5.17,-39.97,-39.79,0,*58
1518703269.89,53592,11.69,73078.0,-5.17,-39.97,-39.59,0,*59
1518703271.1,53593,11.69,73080.3,-5.13,-40.91,-40.65,0,*55
1518703272.33,53594,11.69,73082.3,-5.13,-40.97,-40.65,0,*54
1518703273.53,53595,11.63,73078.8,-5.13,-40.65,-40.47,0,*58
1518703274.73,53596,11.69,73080.3,-5.13,-40.65,-40.35,0,*5E
1518703275.96,53597,11.69,73076.5,-5.13,-41.67,-41.49,0,*56
1518703277.19,53598,11.63,73078.3,-5.17,-41.99,-41.81,0,*58
1518703278.42,53599,11.63,73078.5,-5.17,-41.93,-41.61,0,*5D
1518703279.66,53600,11.69,73080.5,-5.17,-41.03,-40.79,0,*5F
1518703280.89,53601,11.63,73076.0,-5.13,-40.73,-40.29,0,*59
1518703282.09,53602,11.69,73078.0,-5.17,-40.35,-40.03,0,*54
1518703283.29,53603,11.69,73080.5,-5.13,-40.53,-40.15,0,*56
1518703284.51,53604,11.63,73078.0,-5.13,-41.11,-40.79,0,*5C
1518703285.75,53605,11.69,73074.8,-5.17,-40.85,-40.73,0,*5F
1518703286.95,53606,11.69,73080.0,-5.17,-40.73,-40.53,0,*57
1518703288.19,53607,11.69,73078.0,-5.17,-41.03,-40.59,0,*5A
1518703289.43,53608,11.69,73078.3,-5.13,-41.03,-40.79,0,*53
1518703290.62,53609,11.69,73076.5,-5.13,-40.53,-40.35,0,*5E
1518703291.85,53610,11.69,73080.5,-5.17,-40.59,-40.35,0,*58
1518703293.05,53611,11.69,73080.3,-5.13,-40.53,-40.15,0,*55
1518703294.25,53612,11.69,73082.5,-5.13,-40.53,-40.35,0,*54
1518703295.48,53613,11.69,73080.8,-5.13,-40.47,-39.97,0,*56
1518703296.68,53614,11.69,73080.0,-5.13,-40.65,-40.35,0,*57
1518703297.88,53615,11.69,73080.3,-5.13,-40.53,-40.15,0,*51
1518703299.08,53616,11.69,73080.3,-5.17,-40.73,-40.35,0,*56
1518703300.31,53617,11.69,73076.8,-5.13,-40.79,-40.53,0,*59
1518703301.51,53618,11.69,73078.0,-5.13,-40.53,-40.15,0,*5C
1518703302.74,53619,11.69,73080.5,-5.13,-40.29,-39.91,0,*52
1518703303.99,53620,11.69,73084.8,-5.13,-40.29,-39.97,0,*5E
1518703305.24,53621,11.69,73078.5,-5.11,-40.47,-40.09,0,*5C
1518703306.47,53622,11.69,73082.0,-5.11,-40.73,-40.35,0,*57
1518703307.7,53623,11.69,73078.5,-5.09,-41.11,-40.85,0,*51
1518703308.95,53624,11.69,73076.0,-5.11,-40.65,-40.29,0,*5B
1518703310.18,53625,11.69,73080.0,-5.09,-40.41,-40.03,0,*5D
1518703311.44,53626,11.69,73078.8,-5.11,-40.35,-39.97,0,*57
1518703312.71,53627,11.69,73076.8,-5.11,-40.29,-39.97,0,*5B
1518703313.99,53628,11.69,73078.3,-5.11,-39.97,-39.71,0,*57
1518703315.2,53629,11.69,73082.5,-5.09,-40.03,-39.65,0,*59
1518703316.43,53630,11.69,73078.8,-5.09,-40.41,-40.03,0,*59
1518703317.69,53631,11.69,73080.5,-5.09,-40.09,-39.71,0,*5F
1518703318.93,53632,11.69,73078.0,-5.07,-40.21,-39.85,0,*53
1518703320.19,53633,11.69,73082.8,-5.07,-40.65,-40.41,0,*54
1518703321.42,53634,11.69,73076.8,-5.07,-41.41,-41.17,0,*56
1518703322.65,53635,11.69,73076.0,-5.09,-42.25,-41.93,0,*54
1518703323.86,53636,11.69,73078.8,-5.09,-41.61,-41.29,0,*55
1518703325.11,53637,11.69,73080.8,-5.11,-40.97,-40.65,0,*5C
1518703326.32,53638,11.69,73078.3,-5.09,-41.29,-40.91,0,*55
1518703327.58,53639,11.69,73078.3,-5.09,-40.59,-40.09,0,*53
1518703328.78,53640,11.69,73080.3,-5.09,-40.53,-40.35,0,*58
1518703330.0,53641,11.69,73078.3,-5.09,-40.97,-40.47,0,*54
1518703331.23,53642,11.69,73076.8,-5.09,-40.47,-40.29,0,*52
1518703332.47,53643,11.69,73078.5,-5.09,-40.09,-39.85,0,*51
1518703333.69,53644,11.69,73078.5,-5.09,-40.29,-40.03,0,*54
1518703334.89,53645,11.69,73080.8,-5.09,-40.47,-40.03,0,*5D
1518703336.18,53646,11.69,73080.5,-5.07,-41.23,-40.97,0,*5E
1518703337.42,53647,11.69,73080.5,-5.07,-41.61,-41.41,0,*53
1518703338.65,53648,11.69,73080.0,-5.09,-42.13,-41.81,0,*58
1518703339.88,53649,11.69,73082.0,-5.11,-42.37,-41.99,0,*5F
1518703341.16,53650,11.69,73080.5,-5.11,-42.69,-42.57,0,*5D
1518703342.42,53651,11.69,73082.0,-5.11,-42.95,-42.75,0,*5F
1518703343.65,53652,11.69,73080.5,-5.17,-43.15,-42.83,0,*5A
1518703344.88,53653,11.69,73080.5,-5.13,-42.57,-42.25,0,*54
1518703346.11,53654,11.69,73078.8,-5.17,-41.17,-40.79,0,*5B
1518703347.34,53655,11.69,73080.5,-5.17,-40.73,-40.41,0,*52
1518703348.57,53656,11.69,73082.0,-5.17,-41.55,-41.17,0,*56
1518703349.81,53657,11.69,73082.8,-5.17,-40.73,-40.41,0,*50
1518703351.01,53658,11.69,73080.5,-5.13,-40.73,-40.35,0,*58
1518703352.24,53659,11.69,73078.0,-5.17,-40.53,-40.09,0,*50
1518703353.45,53660,11.69,73082.5,-5.13,-40.91,-40.53,0,*5F
1518703354.66,53661,11.69,73080.8,-5.17,-41.41,-41.03,0,*52
1518703355.87,53662,11.69,73080.0,-5.17,-42.37,-41.99,0,*50
1518703357.1,53663,11.69,73082.3,-5.17,-40.79,-40.53,0,*5E
1518703358.36,53664,11.69,73078.3,-5.17,-40.97,-40.59,0,*53
1518703359.59,53665,11.69,73080.8,-5.17,-40.85,-40.53,0,*5B
1518703360.82,53666,11.69,73080.3,-5.17,-40.53,-40.29,0,*5E
1518703362.03,53667,11.69,73076.3,-5.13,-41.29,-40.91,0,*54
1518703363.24,53668,11.69,73076.0,-5.17,-41.03,-40.73,0,*5B
1518703364.46,53669,11.69,73080.0,-5.13,-40.79,-40.35,0,*50
1518703365.68,53670,11.69,73078.8,-5.13,-41.17,-40.91,0,*5F
1518703366.91,53671,11.69,73080.5,-5.17,-41.35,-41.17,0,*55
1518703368.15,53672,11.69,73078.5,-5.13,-41.87,-41.67,0,*5C
1518703369.41,53673,11.69,73078.0,-5.13,-42.19,-41.93,0,*52
1518703370.62,53674,11.69,73078.5,-5.17,-42.37,-41.99,0,*57
1518703371.85,53675,11.69,73080.3,-5.17,-41.73,-41.35,0,*53
1518703373.12,53676,11.69,73078.5,-5.17,-41.23,-40.85,0,*5F
1518703374.35,53677,11.69,73082.0,-5.17,-40.97,-40.73,0,*59
1518703375.56,53678,11.69,73080.0,-5.17,-41.17,-40.73,0,*5F
1518703376.79,53679,11.69,73080.8,-5.17,-41.93,-41.73,0,*53
1518703378.04,53680,11.69,73076.5,-5.17,-42.45,-42.05,0,*5F
1518703379.28,53681,11.69,73082.0,-5.21,-42.51,-42.45,0,*5A
1518703380.51,53682,11.69,73078.3,-5.21,-42.89,-42.69,0,*52
1518703381.75,53683,11.69,73082.5,-5.21,-42.83,-42.51,0,*52
1518703382.96,53684,11.69,73080.5,-5.21,-41.49,-41.11,0,*57
1518703384.17,53685,11.69,73080.5,-5.25,-40.91,-40.65,0,*54
1518703385.41,53686,11.69,73080.0,-5.25,-40.97,-40.73,0,*56
1518703386.62,53687,11.69,73082.5,-5.25,-40.91,-40.65,0,*56
1518703387.88,53688,11.69,73082.0,-5.19,-40.41,-40.03,0,*5B
1518703389.09,53689,11.69,73080.0,-5.21,-40.91,-40.65,0,*5C
1518703390.36,53690,11.69,73082.3,-5.19,-41.41,-41.23,0,*50
1518703391.61,53691,11.69,73080.5,-5.19,-42.05,-41.87,0,*5C
1518703392.85,53692,11.69,73082.0,-5.21,-42.51,-42.45,0,*58
1518703394.08,53693,11.69,73080.8,-5.25,-42.57,-42.51,0,*5E
1518703395.3,53694,11.69,73080.5,-5.21,-42.25,-41.87,0,*50
1518703396.56,53695,11.69,73078.8,-5.21,-40.79,-40.41,0,*51
1518703397.77,53696,11.69,73084.0,-5.25,-41.17,-40.91,0,*52
1518703399.01,53697,11.69,73080.5,-5.21,-41.73,-41.67,0,*5D
1518703400.27,53698,11.69,73080.0,-5.21,-42.05,-41.81,0,*58
1518703401.5,53699,11.69,73082.5,-5.21,-41.81,-41.49,0,*52
1518703402.74,53700,11.69,73080.8,-5.25,-42.37,-42.19,0,*5F
1518703404.0,53701,11.69,73078.0,-5.25,-42.19,-41.93,0,*53
1518703405.27,53702,11.69,73084.0,-5.25,-40.97,-40.85,0,*52
1518703406.51,53703,11.69,73080.0,-5.25,-41.29,-40.97,0,*54
1518703407.75,53704,11.69,73080.3,-5.25,-41.17,-40.85,0,*5D
1518703409.02,53705,11.69,73080.8,-5.25,-41.35,-40.97,0,*5F
1518703410.25,53706,11.69,73080.5,-5.25,-40.85,-40.47,0,*5B
1518703411.49,53707,11.69,73082.5,-5.27,-40.91,-40.65,0,*5D
1518703412.7,53708,11.69,73080.0,-5.25,-40.91,-40.65,0,*50
1518703413.91,53709,11.69,73082.0,-5.25,-40.73,-40.47,0,*5D
1518703415.16,53710,11.69,73082.3,-5.19,-41.11,-40.79,0,*52
1518703416.39,53711,11.69,73076.8,-5.21,-41.11,-40.79,0,*58
1518703417.62,53712,11.69,73080.5,-5.21,-40.29,-39.91,0,*59
1518703418.87,53713,11.69,73082.0,-5.19,-40.29,-40.03,0,*56
1518703420.13,53714,11.69,73078.0,-5.19,-41.11,-40.79,0,*56
1518703421.39,53715,11.69,73076.8,-5.17,-41.23,-40.97,0,*58
1518703422.62,53716,11.69,73082.8,-5.17,-40.53,-40.21,0,*50
1518703423.83,53717,11.69,73082.5,-5.17,-40.15,-39.85,0,*53
1518703425.06,53718,11.69,73082.8,-5.13,-39.91,-39.53,0,*51
1518703426.32,53719,11.69,73080.8,-5.13,-39.97,-39.71,0,*56
1518703427.56,53720,11.69,73082.8,-5.13,-40.15,-39.97,0,*50
1518703428.78,53721,11.69,73082.5,-5.13,-40.79,-40.35,0,*5D
1518703430.01,53722,11.69,73080.3,-5.13,-40.97,-40.65,0,*5B
1518703431.26,53723,11.69,73080.8,-5.11,-40.29,-39.91,0,*58
1518703432.49,53724,11.69,73078.8,-5.13,-40.35,-39.97,0,*56
1518703433.78,53725,11.69,73082.0,-5.11,-40.09,-39.79,0,*5A
1518703435.04,53726,11.69,73080.5,-5.09,-40.59,-40.41,0,*50
1518703436.27,53727,11.69,73080.5,-5.09,-40.73,-40.41,0,*59
1518703437.5,53728,11.69,73080.8,-5.09,-40.65,-40.41,0,*51
1518703438.71,53729,11.69,73080.8,-5.09,-41.11,-41.03,0,*55
1518703439.95,53730,11.69,73082.0,-5.09,-41.23,-40.91,0,*56
1518703441.18,53731,11.69,73082.3,-5.09,-40.65,-40.41,0,*59
1518703442.44,53732,11.69,73082.0,-5.09,-40.41,-40.09,0,*50
1518703443.67,53733,11.69,73078.5,-5.07,-40.03,-39.85,0,*53
1518703444.94,53734,11.69,73080.5,-5.05,-39.79,-39.59,0,*54
1518703446.14,53735,11.69,73080.5,-5.05,-39.85,-39.47,0,*59
1518703447.38,53736,11.69,73078.8,-5.05,-39.79,-39.47,0,*59
1518703448.63,53737,11.69,73080.0,-5.05,-40.15,-39.79,0,*51
1518703449.84,53738,11.69,73080.8,-5.05,-40.15,-39.85,0,*5D
1518703451.1,53739,11.69,73080.3,-5.01,-40.09,-39.79,0,*56
1518703452.39,53740,11.69,73082.8,-5.03,-40.09,-39.79,0,*5A
1518703453.6,53741,11.69,73086.3,-5.01,-40.15,-39.91,0,*52
1518703454.85,53742,11.69,73084.8,-5.03,-40.29,-39.91,0,*5C
1518703456.08,53743,11.69,73082.5,-5.01,-40.35,-40.09,0,*5D
1518703457.3,53744,11.69,73084.8,-5.01,-40.47,-40.29,0,*5D
1518703458.56,53745,11.69,73080.5,-4.97,-40.47,-40.21,0,*5A
1518703459.85,53746,11.69,73078.5,-4.97,-40.41,-40.09,0,*55
1518703461.06,53747,11.69,73080.0,-5.01,-40.91,-40.53,0,*58
1518703462.32,53748,11.69,73086.3,-5.01,-40.97,-40.59,0,*5B
1518703463.57,53749,11.69,73076.0,-5.01,-40.97,-40.59,0,*5A
1518703464.82,53750,11.69,73080.5,-5.01,-40.79,-40.59,0,*52
1518703466.06,53751,11.69,73080.3,-5.01,-40.91,-40.59,0,*55
1518703467.26,53752,11.69,73080.0,-5.01,-40.73,-40.47,0,*55
1518703468.49,53753,11.69,73080.0,-5.01,-40.97,-40.73,0,*59
1518703469.73,53754,11.69,73078.8,-4.97,-41.03,-40.73,0,*5C
1518703471.01,53755,11.69,73082.0,-4.97,-40.85,-40.41,0,*53
1518703472.27,53756,11.69,73078.8,-4.97,-40.53,-40.09,0,*57
1518703473.52,53757,11.69,73080.8,-4.97,-40.29,-39.91,0,*54
1518703474.75,53758,11.69,73082.8,-4.95,-40.53,-40.09,0,*5B
1518703476.0,53759,11.69,73086.5,-4.97,-40.53,-40.29,0,*5A
1518703477.22,53760,11.69,73086.3,-4.95,-40.73,-40.29,0,*50
1518703478.48,53761,11.69,73080.8,-4.95,-40.85,-40.41,0,*56
1518703479.71,53762,11.69,73080.5,-4.95,-40.85,-40.47,0,*53
1518703480.93,53763,11.69,73082.0,-4.95,-40.85,-40.73,0,*55
1518703482.13,53764,11.69,73084.8,-4.95,-41.11,-40.65,0,*59
1518703483.36,53765,11.69,73080.5,-4.95,-40.73,-40.41,0,*5B
1518703484.59,53766,11.69,73082.8,-4.95,-40.85,-40.47,0,*57
1518703485.8,53767,11.69,73080.5,-4.95,-40.91,-40.53,0,*56
1518703487.02,53768,11.69,73078.5,-4.95,-40.53,-40.21,0,*52
1518703488.25,53769,11.69,73076.8,-4.95,-40.47,-40.21,0,*56
1518703489.47,53770,11.69,73080.0,-4.95,-40.65,-40.41,0,*58
1518703490.7,53771,11.69,73078.3,-4.95,-40.65,-40.29,0,*57
1518703491.95,53772,11.69,73080.8,-4.95,-40.85,-40.41,0,*54
1518703493.18,53773,11.69,73078.5,-4.95,-40.65,-40.41,0,*5B
1518703494.4,53774,11.69,73082.3,-4.93,-40.65,-40.35,0,*59
1518703495.69,53775,11.69,73078.3,-4.93,-40.97,-40.59,0,*5F
1518703496.98,53776,11.69,73082.3,-4.93,-41.23,-40.85,0,*53
1518703498.28,53777,11.69,73082.5,-4.93,-41.23,-40.97,0,*51
1518703499.54,53778,11.69,73080.0,-4.93,-41.67,-41.41,0,*54
1518703500.8,53779,11.69,73080.5,-4.97,-41.93,-41.61,0,*58
1518703502.05,53780,11.69,73084.8,-4.95,-42.45,-42.05,0,*55
1518703503.28,53781,11.69,73076.8,-4.97,-42.51,-42.25,0,*51
1518703504.55,53782,11.69,73080.0,-4.97,-41.23,-40.91,0,*59
1518703505.85,53783,11.69,73084.0,-4.97,-41.23,-40.85,0,*5D
1518703507.09,53784,11.69,73080.5,-4.97,-41.41,-41.11,0,*52
1518703508.29,53785,11.69,73082.3,-5.01,-41.29,-40.91,0,*5A
1518703509.53,53786,11.69,73080.0,-5.01,-40.91,-40.59,0,*5F
1518703510.73,53787,11.69,73080.8,-5.01,-40.91,-40.47,0,*51
1518703512.02,53788,11.69,73078.8,-4.97,-40.85,-40.29,0,*5D
1518703513.25,53789,11.69,73084.5,-4.97,-41.29,-40.91,0,*58
1518703514.48,53790,11.69,73082.8,-4.97,-41.11,-40.73,0,*57
1518703515.72,53791,11.69,73084.5,-4.97,-41.41,-41.11,0,*56
1518703516.95,53792,11.69,73084.3,-5.01,-41.11,-40.59,0,*53
1518703518.17,53793,11.69,73080.8,-5.01,-40.79,-40.47,0,*52
1518703519.39,53794,11.69,73080.5,-5.01,-40.79,-40.35,0,*50
1518703520.66,53795,11.69,73082.3,-4.97,-40.41,-39.91,0,*54
1518703521.91,53796,11.69,73084.5,-4.97,-40.21,-39.85,0,*54
1518703523.17,53797,11.69,73080.5,-4.97,-40.09,-39.85,0,*5F
1518703524.39,53798,11.69,73082.5,-4.95,-40.47,-40.29,0,*50
1518703525.62,53799,11.69,73080.3,-4.97,-40.47,-40.03,0,*5B
1518703526.84,53800,11.69,73082.5,-4.95,-40.53,-40.21,0,*53
1518703528.07,53801,11.69,73080.5,-4.95,-40.21,-39.91,0,*52
1518703529.29,53802,11.69,73080.3,-4.95,-40.65,-40.29,0,*5C
1518703530.51,53803,11.69,73082.5,-4.95,-40.21,-39.91,0,*50
1518703531.74,53804,11.69,73080.0,-4.95,-40.47,-40.21,0,*52
1518703532.97,53805,11.69,73086.5,-4.95,-40.41,-40.03,0,*55
1518703534.19,53806,11.75,73086.3,-4.95,-40.65,-40.29,0,*58
1518703535.42,53807,11.69,73080.3,-4.95,-40.73,-40.41,0,*50
1518703536.64,53808,11.69,73084.3,-4.95,-40.65,-40.41,0,*58
1518703537.84,53809,11.69,73080.3,-4.95,-40.47,-40.03,0,*5F
1518703539.12,53810,11.69,73084.8,-4.93,-40.59,-40.21,0,*5E
1518703540.32,53811,11.69,73080.8,-4.91,-40.65,-40.35,0,*57
1518703541.6,53812,11.69,73082.3,-4.93,-40.59,-40.21,0,*5C
1518703542.82,53813,11.69,73084.0,-4.93,-40.65,-40.35,0,*57
1518703544.08,53814,11.69,73080.8,-4.93,-40.65,-40.21,0,*55
1518703545.33,53815,11.69,73076.8,-4.93,-40.41,-40.03,0,*52
1518703546.56,53816,11.75,73086.5,-4.93,-40.47,-40.03,0,*57
1518703547.81,53817,11.69,73080.8,-4.93,-40.65,-40.21,0,*56
1518703549.02,53818,11.69,73082.0,-4.91,-40.47,-40.15,0,*5C
1518703550.29,53819,11.69,73082.0,-4.93,-40.21,-39.97,0,*5B
1518703551.52,53820,11.69,73082.8,-4.91,-40.59,-40.35,0,*5A
1518703552.76,53821,11.69,73082.5,-4.91,-40.41,-40.15,0,*50
1518703553.96,53822,11.69,73080.3,-4.91,-40.47,-40.03,0,*52
1518703555.22,53823,11.69,73082.5,-4.91,-40.41,-39.97,0,*56
1518703556.47,53824,11.69,73082.3,-4.91,-40.59,-40.21,0,*5B
1518703557.69,53825,11.69,73080.5,-4.91,-40.65,-40.21,0,*55
1518703558.95,53826,11.75,73086.3,-4.91,-40.85,-40.59,0,*57
1518703560.18,53827,11.69,73084.3,-4.91,-40.65,-40.21,0,*57
1518703561.44,53828,11.69,73080.5,-4.91,-40.85,-40.41,0,*50
1518703562.7,53829,11.69,73082.8,-4.91,-40.85,-40.41,0,*51
1518703563.95,53830,11.69,73082.5,-4.89,-40.73,-40.29,0,*57
1518703565.21,53831,11.69,73082.0,-4.89,-40.73,-40.29,0,*56
1518703566.4,53832,11.69,73082.0,-4.91,-40.65,-40.35,0,*56
1518703567.63,53833,11.75,73084.3,-4.91,-40.85,-40.65,0,*5C
1518703568.93,53834,11.69,73080.8,-4.93,-41.23,-40.97,0,*59
1518703570.18,53835,11.69,73084.3,-4.93,-40.85,-40.47,0,*58
1518703571.44,53836,11.75,73084.0,-4.91,-40.79,-40.41,0,*5C
1518703572.67,53837,11.69,73082.3,-4.91,-40.97,-40.47,0,*5B
1518703573.9,53838,11.69,73080.5,-4.91,-40.85,-40.47,0,*57
1518703575.1,53839,11.69,73080.5,-4.91,-41.17,-40.65,0,*5C
1518703576.33,53840,11.69,73082.8,-4.91,-40.65,-40.41,0,*50
1518703577.55,53841,11.69,73084.3,-4.91,-40.79,-40.35,0,*5F
1518703578.84,53842,11.69,73082.0,-4.93,-40.85,-40.59,0,*57
1518703580.12,53843,11.75,73084.8,-4.93,-40.85,-40.59,0,*56
1518703581.35,53844,11.69,73084.3,-4.91,-40.85,-40.35,0,*59
1518703582.64,53845,11.69,73084.3,-4.93,-40.85,-40.59,0,*50
1518703583.89,53846,11.69,73082.3,-4.93,-40.85,-40.47,0,*5C
1518703585.12,53847,11.69,73082.5,-4.91,-40.85,-40.47,0,*5F
1518703586.39,53848,11.69,73084.8,-4.91,-41.23,-40.85,0,*53
1518703587.62,53849,11.69,73082.3,-4.91,-41.03,-40.79,0,*53
1518703588.85,53850,11.69,73082.8,-4.91,-40.85,-40.35,0,*5C
1518703590.11,53851,11.69,73080.5,-4.91,-40.79,-40.41,0,*5D
1518703591.4,53852,11.69,73082.5,-4.93,-41.23,-40.85,0,*5A
1518703592.64,53853,11.69,73082.3,-4.93,-41.41,-41.03,0,*50
1518703593.89,53854,11.69,73080.5,-4.93,-40.97,-40.47,0,*5C
1518703595.18,53855,11.69,73082.8,-4.93,-40.59,-40.21,0,*5F
1518703596.44,53856,11.69,73082.3,-4.91,-41.35,-40.85,0,*5B
1518703597.73,53857,11.69,73080.3,-4.93,-40.97,-40.59,0,*50
1518703598.96,53858,11.75,73080.3,-4.93,-41.03,-40.47,0,*5C
1518703600.19,53859,11.69,73082.0,-4.93,-40.65,-40.15,0,*5B
1518703601.47,53860,11.69,73080.5,-4.93,-40.79,-40.21,0,*5B
1518703602.75,53861,11.69,73076.3,-4.93,-40.85,-40.41,0,*5F
1518703603.99,53862,11.75,73080.3,-4.93,-41.03,-40.47,0,*55
1518703605.2,53863,11.69,73076.0,-4.95,-40.91,-40.47,0,*58
1518703606.49,53864,11.75,73082.3,-4.93,-41.67,-41.23,0,*52
1518703607.74,53865,11.75,73080.5,-4.93,-41.17,-40.79,0,*5A
1518703608.97,53866,11.69,73082.3,-4.95,-40.65,-40.41,0,*50
1518703610.2,53867,11.75,73080.5,-4.95,-40.91,-40.41,0,*5A
1518703611.41,53868,11.69,73080.0,-4.95,-41.03,-40.73,0,*5E
1518703612.61,53869,11.69,73080.0,-4.95,-41.11,-40.73,0,*5C
1518703613.88,53870,11.69,73082.8,-4.95,-41.23,-40.85,0,*5C
1518703615.11,53871,11.75,73082.3,-4.97,-41.03,-40.65,0,*53
1518703616.33,53872,11.75,73080.5,-4.95,-41.41,-40.91,0,*5F
1518703617.56,53873,11.69,73082.0,-4.95,-41.23,-40.91,0,*5A
1518703618.8,53874,11.69,73082.0,-4.97,-41.29,-40.91,0,*55
1518703620.04,53875,11.75,73082.8,-4.97,-41.49,-41.11,0,*5B
1518703621.28,53876,11.75,73080.3,-4.97,-41.03,-40.65,0,*54
1518703622.54,53877,11.75,73080.3,-4.95,-41.23,-40.85,0,*5B
1518703623.77,53878,11.75,73086.0,-4.97,-41.49,-41.11,0,*56
1518703625.02,53879,11.75,73082.3,-4.97,-41.03,-40.53,0,*5E
1518703626.22,53880,11.69,73080.5,-4.95,-41.61,-41.11,0,*59
1518703627.48,53881,11.75,73082.3,-4.97,-40.73,-40.41,0,*5C
1518703628.74,53882,11.75,73082.3,-4.97,-40.65,-40.29,0,*56
1518703629.99,53883,11.75,73084.8,-4.97,-40.65,-40.21,0,*5F
1518703631.24,53884,11.75,73080.5,-4.97,-40.47,-40.21,0,*58
1518703632.53,53885,11.75,73082.8,-4.97,-40.85,-40.29,0,*5F
1518703633.78,53886,11.75,73082.3,-4.97,-40.53,-40.09,0,*55
1518703635.03,53887,11.75,73082.5,-4.97,-40.73,-40.29,0,*54
1518703636.29,53888,11.75,73080.5,-4.97,-40.53,-40.21,0,*51
1518703637.55,53889,11.75,73082.3,-4.97,-40.41,-40.03,0,*53
1518703638.78,53890,11.75,73082.5,-4.97,-40.91,-40.65,0,*56
1518703640.04,53891,11.75,73084.5,-4.97,-41.11,-40.85,0,*50
1518703641.28,53892,11.75,73082.3,-4.97,-40.91,-40.73,0,*53
1518703642.52,53893,11.69,73082.3,-4.97,-41.29,-41.03,0,*56
1518703643.78,53894,11.69,73082.5,-4.97,-41.11,-40.85,0,*55
1518703645.02,53895,11.69,73076.8,-4.97,-41.03,-40.65,0,*59
1518703646.29,53896,11.75,73082.8,-4.97,-41.23,-40.91,0,*53
1518703647.52,53897,11.75,73082.0,-5.03,-41.17,-40.73,0,*55
1518703648.75,53898,11.75,73082.8,-5.03,-40.91,-40.47,0,*52
1518703649.99,53899,11.75,73084.3,-5.03,-40.79,-40.35,0,*50
1518703651.23,53900,11.75,73080.5,-5.01,-41.35,-41.11,0,*5D
1518703652.5,53901,11.75,73080.0,-5.03,-41.35,-40.91,0,*57
1518703653.76,53902,11.75,73082.5,-5.01,-41.35,-40.97,0,*50
1518703655.01,53903,11.69,73082.0,-5.03,-40.97,-40.73,0,*50
1518703656.25,53904,11.69,73078.0,-5.03,-41.29,-40.91,0,*5F
1518703657.51,53905,11.69,73080.5,-5.03,-41.17,-40.97,0,*55
1518703658.8,53906,11.75,73080.0,-5.03,-41.35,-40.97,0,*56
1518703660.03,53907,11.69,73080.5,-5.05,-40.85,-40.53,0,*53
1518703661.27,53908,11.75,73084.0,-5.05,-40.97,-40.65,0,*5A
1518703662.5,53909,11.75,73082.5,-5.05,-40.85,-40.53,0,*5D
1518703663.73,53910,11.75,73084.8,-5.05,-40.65,-40.41,0,*58
1518703664.97,53911,11.69,73082.0,-5.05,-40.85,-40.53,0,*54
1518703666.18,53912,11.75,73082.0,-5.05,-41.99,-41.61,0,*5B
1518703667.41,53913,11.75,73082.3,-5.05,-41.73,-41.35,0,*5F
1518703668.63,53914,11.75,73084.3,-5.05,-41.41,-41.03,0,*5C
1518703669.87,53915,11.69,73080.0,-5.05,-41.03,-40.59,0,*55
1518703671.16,53916,11.75,73082.0,-5.07,-40.97,-40.59,0,*58
1518703672.44,53917,11.75,73084.5,-5.07,-41.23,-40.79,0,*55
1518703673.73,53918,11.69,73080.5,-5.07,-41.35,-40.97,0,*5D
1518703675.01,53919,11.75,73080.3,-5.07,-41.81,-41.35,0,*5A
1518703676.25,53920,11.75,73082.8,-5.09,-41.81,-41.61,0,*5F
1518703677.48,53921,11.75,73086.3,-5.09,-41.93,-41.41,0,*5F
1518703678.69,53922,11.75,73082.8,-5.09,-41.61,-41.11,0,*54
1518703679.93,53923,11.75,73082.8,-5.09,-41.81,-41.29,0,*50
1518703681.18,53924,11.75,73084.0,-5.11,-41.73,-41.35,0,*5E
1518703682.45,53925,11.75,73080.3,-5.11,-41.35,-40.91,0,*52
1518703683.7,53926,11.75,73084.0,-5.11,-41.17,-40.79,0,*57
1518703684.91,53927,11.75,73082.5,-5.13,-41.29,-40.91,0,*5F
1518703686.12,53928,11.75,73084.0,-5.13,-41.87,-41.49,0,*50
1518703687.35,53929,11.75,73084.8,-5.13,-41.55,-41.17,0,*55
1518703688.56,53930,11.75,73084.5,-5.13,-41.73,-41.49,0,*52
1518703689.79,53931,11.75,73084.3,-5.13,-41.35,-41.17,0,*5A
1518703691.01,53932,11.69,73076.8,-5.13,-40.91,-40.53,0,*57
1518703692.28,53933,11.75,73082.3,-5.17,-41.35,-40.97,0,*55
1518703693.49,53934,11.75,73082.8,-5.13,-41.17,-40.91,0,*50
1518703694.72,53935,11.75,73084.0,-5.13,-41.17,-40.79,0,*57